Beatrice, NE

10:20 AM CST on December 08, 2019 (GMT -0600)
Beatrice Municipal

Weather History for KBIE - October, 2019

Change the Weather History Date:

Wednesday, October 23, 2019

  Actual Average Record
Temperature  
Mean Temperature 54 °F -  
Max Temperature 64 °F 62 °F 84 °F (1975)
Min Temperature 44 °F 41 °F 20 °F (1981)
Degree Days  
Heating Degree Days 11    
Growing Degree Days 4 (Base 50)    
Moisture  
Dew Point 40 °F    
Average Humidity 64    
Maximum Humidity 89    
Minimum Humidity 38    
Precipitation  
Precipitation 0.00 in - - ()
Sea Level Pressure  
Sea Level Pressure 29.92 in    
Wind  
Wind Speed 8 mph (NNW)    
Max Wind Speed 26 mph    
Max Gust Speed 36 mph    
Visibility 10 miles    
Events Rain    
Averages and records for this station are not official NWS values.
T = Trace of Precipitation, MM = Missing Value Source: NWS Daily Summary

Daily Weather History Graph

Daily Weather History Graph

Search for Another Location

Airport or City:

Astronomy

Oct. 23, 2019 Rise Set
Actual Time 7:46 AM CDT 6:35 PM CDT
Civil Twilight 7:18 AM CDT 7:03 PM CDT
Nautical Twilight 6:46 AM CDT 7:35 PM CDT
Astronomical Twilight 6:15 AM CDT 8:06 PM CDT
Moon 2:05 AM CDT (10/23) 4:27 PM CDT (10/23)
Length of Visible Light 11h 45m
Length of Day
10h 49m
Waning Crescent, 26% of the Moon is Illuminated
Oct 23
Waning Crescent
Oct 27
New
Nov 4
First Quarter
Nov 12
Full
Nov 19
Last Quarter

Hourly Weather History & Observations

Time (CDT) Temp. Windchill Dew Point Humidity Pressure Visibility Wind Dir Wind Speed Gust Speed Precip Events Conditions
12:15 AM 45.5 °F 43.2 °F 36.3 °F 70% 29.89 in 10.0 mi SSW 4.6 mph - N/A   Overcast
12:35 AM 47.8 °F - 36.3 °F 64% 29.88 in 10.0 mi Calm Calm - N/A   Overcast
12:55 AM 47.1 °F - 37.0 °F 68% 29.89 in 10.0 mi NNW 4.6 mph - N/A   Overcast
1:15 AM 47.1 °F - 36.7 °F 67% 29.87 in 10.0 mi Calm Calm - N/A   Overcast
1:35 AM 45.5 °F - 39.7 °F 80% 29.88 in 10.0 mi Calm Calm - N/A   Overcast
1:55 AM 46.2 °F 44.1 °F 38.5 °F 74% 29.86 in 10.0 mi South 4.6 mph - N/A   Overcast
2:15 AM 46.9 °F - 37.9 °F 71% 29.85 in 10.0 mi Calm Calm - N/A   Overcast
2:35 AM 46.8 °F - 37.8 °F 71% 29.85 in 10.0 mi Calm Calm - N/A   Overcast
2:55 AM 46.8 °F - 38.7 °F 73% 29.84 in 10.0 mi Calm Calm - N/A   Overcast
3:15 AM 46.4 °F - 38.3 °F 73% 29.84 in 10.0 mi Calm Calm - N/A   Overcast
3:35 AM 45.7 °F - 38.3 °F 75% 29.84 in 10.0 mi Calm Calm - N/A   Mostly Cloudy
3:50 AM 45.7 °F 44.4 °F 38.7 °F 76% 29.83 in 10.0 mi ESE 3.5 mph - N/A   Mostly Cloudy
4:15 AM 46.0 °F 44.8 °F 37.4 °F 72% 29.80 in 10.0 mi ESE 3.5 mph - N/A   Mostly Cloudy
4:35 AM 45.9 °F - 36.9 °F 71% 29.80 in 10.0 mi Calm Calm - N/A   Mostly Cloudy
4:55 AM 45.7 °F 42.0 °F 37.4 °F 73% 29.79 in 10.0 mi South 6.9 mph - N/A   Scattered Clouds
5:15 AM 46.4 °F 43.5 °F 36.5 °F 68% 29.79 in 10.0 mi South 5.8 mph - N/A   Scattered Clouds
5:35 AM 47.5 °F - 36.9 °F 67% 29.81 in 10.0 mi Calm Calm - N/A   Overcast
5:55 AM 45.7 °F 44.4 °F 39.7 °F 80% 29.83 in 10.0 mi NNW 3.5 mph - N/A Rain Light Rain
6:15 AM 45.5 °F - 40.5 °F 83% 29.81 in 10.0 mi Calm Calm - N/A   Mostly Cloudy
6:35 AM 44.2 °F 41.0 °F 40.3 °F 86% 29.79 in 10.0 mi SE 5.8 mph - N/A   Scattered Clouds
6:55 AM 44.1 °F 41.5 °F 41.0 °F 89% 29.80 in 10.0 mi South 4.6 mph - N/A   Scattered Clouds
7:15 AM 45.5 °F - 40.5 °F 83% 29.79 in 10.0 mi Calm Calm - N/A   Mostly Cloudy
7:35 AM 45.1 °F 42.8 °F 39.4 °F 80% 29.79 in 10.0 mi South 4.6 mph - N/A   Scattered Clouds
7:55 AM 45.5 °F 41.3 °F 39.4 °F 79% 29.79 in 10.0 mi South 8.1 mph - N/A   Mostly Cloudy
8:15 AM 47.1 °F - 39.6 °F 75% 29.79 in 10.0 mi South 5.8 mph - N/A   Overcast
8:35 AM 49.6 °F - 39.4 °F 68% 29.79 in 10.0 mi SSE 5.8 mph - N/A   Mostly Cloudy
8:55 AM 49.3 °F - 39.7 °F 70% 29.79 in 10.0 mi South 5.8 mph - N/A   Mostly Cloudy
9:35 AM 51.6 °F - 40.1 °F 65% 29.81 in 10.0 mi SW 8.1 mph - N/A   Mostly Cloudy
9:55 AM 54.0 °F - 39.7 °F 59% 29.80 in 10.0 mi WSW 9.2 mph - N/A   Scattered Clouds
10:15 AM 54.1 °F - 40.5 °F 60% 29.81 in 10.0 mi West 12.7 mph 17.3 mph N/A   Scattered Clouds
10:35 AM 53.4 °F - 41.2 °F 63% 29.82 in 10.0 mi West 9.2 mph 20.7 mph N/A   Clear
10:55 AM 54.7 °F - 41.9 °F 62% 29.83 in 10.0 mi WNW 15.0 mph - N/A   Clear
11:15 AM 56.8 °F - 43.0 °F 60% 29.83 in 10.0 mi NW 18.4 mph 25.3 mph N/A   Clear
11:35 AM 60.1 °F - 44.6 °F 57% 29.83 in 10.0 mi NW 11.5 mph - N/A   Clear
11:55 AM 61.7 °F - 44.8 °F 54% 29.85 in 10.0 mi NW 21.9 mph 27.6 mph N/A   Clear
12:15 PM 60.8 °F - 45.7 °F 57% 29.86 in 10.0 mi WNW 21.9 mph 28.8 mph N/A   Clear
12:35 PM 61.5 °F - 45.7 °F 56% 29.86 in 10.0 mi NW 26.5 mph - N/A   Clear
12:55 PM 61.0 °F - 44.8 °F 55% 29.86 in 10.0 mi NW 23.0 mph 32.2 mph N/A   Clear
1:15 PM 62.1 °F - 44.6 °F 53% 29.86 in 10.0 mi NW 19.6 mph 31.1 mph N/A   Clear
1:35 PM 62.2 °F - 43.5 °F 50% 29.87 in 10.0 mi NW 21.9 mph 29.9 mph N/A   Scattered Clouds
1:55 PM 63.7 °F - 42.8 °F 47% 29.88 in 10.0 mi NNW 26.5 mph 35.7 mph N/A   Scattered Clouds
2:15 PM 64.0 °F - 41.4 °F 43% 29.88 in 10.0 mi NW 21.9 mph 31.1 mph N/A   Scattered Clouds
2:35 PM 63.7 °F - 37.8 °F 38% 29.88 in 10.0 mi NW 25.3 mph 28.8 mph N/A   Clear
2:55 PM 63.5 °F - 38.5 °F 40% 29.89 in 10.0 mi NNW 25.3 mph 29.9 mph N/A   Clear
3:15 PM 63.9 °F - 38.5 °F 39% 29.90 in 10.0 mi NNW 20.7 mph 28.8 mph N/A   Clear
3:35 PM 63.5 °F - 37.6 °F 38% 29.91 in 10.0 mi NNW 19.6 mph 29.9 mph N/A   Clear
3:55 PM 63.5 °F - 37.4 °F 38% 29.91 in 10.0 mi NW 18.4 mph 28.8 mph N/A   Clear
4:15 PM 62.8 °F - 37.6 °F 39% 29.93 in 10.0 mi NNW 23.0 mph 31.1 mph N/A   Clear
4:35 PM 62.6 °F - 36.7 °F 38% 29.94 in 10.0 mi NNW 20.7 mph 27.6 mph N/A   Clear
4:55 PM 62.1 °F - 36.0 °F 38% 29.95 in 10.0 mi NNW 15.0 mph 27.6 mph N/A   Clear
5:15 PM 61.5 °F - 36.1 °F 39% 29.96 in 10.0 mi NNW 18.4 mph 24.2 mph N/A   Clear
5:35 PM 60.8 °F - 36.7 °F 41% 29.96 in 10.0 mi NNW 15.0 mph 19.6 mph N/A   Clear
5:55 PM 59.9 °F - 36.7 °F 42% 29.97 in 10.0 mi North 11.5 mph - N/A   Clear
6:15 PM 56.8 °F - 37.4 °F 48% 29.98 in 10.0 mi North 9.2 mph - N/A   Clear
6:35 PM 56.1 °F - 36.7 °F 48% 29.99 in 10.0 mi North 6.9 mph - N/A   Clear
6:55 PM 49.5 °F - 37.8 °F 64% 30.02 in 10.0 mi North 6.9 mph - N/A   Clear
7:15 PM 50.4 °F - 37.4 °F 61% 30.03 in 10.0 mi North 9.2 mph - N/A   Clear
7:55 PM 50.9 °F - 37.9 °F 61% 30.06 in 10.0 mi North 9.2 mph - N/A   Scattered Clouds
8:15 PM 50.9 °F - 38.7 °F 63% 30.09 in 10.0 mi NNE 8.1 mph - N/A   Scattered Clouds
8:35 PM 50.0 °F - 41.0 °F 71% 30.09 in 10.0 mi NNE 10.4 mph - N/A   Mostly Cloudy
8:55 PM 49.8 °F - 42.8 °F 77% 30.10 in 10.0 mi NNE 13.8 mph 17.3 mph N/A   Mostly Cloudy
9:15 PM 49.1 °F - 42.8 °F 79% 30.14 in 10.0 mi North 9.2 mph - N/A   Mostly Cloudy
9:35 PM 48.0 °F - 41.9 °F 79% 30.15 in 10.0 mi North 16.1 mph 20.7 mph N/A   Mostly Cloudy
9:55 PM 46.6 °F - 41.0 °F 81% 30.16 in 10.0 mi North 15.0 mph 20.7 mph N/A   Scattered Clouds
10:15 PM 45.9 °F 40.8 °F 40.5 °F 81% 30.19 in 10.0 mi North 10.4 mph 18.4 mph N/A   Clear
10:35 PM 46.4 °F 41.9 °F 40.5 °F 80% 30.20 in 10.0 mi North 9.2 mph - N/A   Mostly Cloudy
10:55 PM 46.9 °F - 40.3 °F 78% 30.23 in 10.0 mi North 12.7 mph 23.0 mph N/A   Overcast
11:15 PM 46.4 °F 40.1 °F 40.1 °F 79% 30.24 in 10.0 mi North 15.0 mph 19.6 mph N/A   Overcast
11:35 PM 45.7 °F 39.8 °F 39.0 °F 78% 30.24 in 10.0 mi North 12.7 mph 20.7 mph N/A   Overcast
11:55 PM 45.1 °F 38.4 °F 38.5 °F 77% 30.26 in 10.0 mi North 15.0 mph 23.0 mph N/A   Overcast